Terminal Aerodrome Forecast
Issued by NWS

Home | Current Version | Previous Version | Text Only | Print | Product List | Glossary On
Versions: 1 2 3 4 5 6 7 8 9 10 11 12 13 14 15 16 17 18
000
FTUS45 KTFX 051429 AAA
TAFCTB
TAF AMD
KCTB 051429Z 0514/0612 35015KT P6SM SCT006 OVC050
      TEMPO 0514/0516 3SM -RA BKN025
     FM051600 01012KT P6SM SCT015 BKN030
      TEMPO 0516/0518 5SM -RA BKN015
     FM051800 35010KT P6SM VCSH SCT030 BKN060
     FM052200 35008KT P6SM BKN090
     FM060300 32005KT P6SM BKN150=

USA.gov is the U.S. government's official web portal to all federal, state and local government web resources and services.